Terminal Aerodrome Forecast
Issued by NWS Charleston, WV

Current Version | Previous Version | Graphics & Text | Print | Product List | Glossary On
Versions: 1 2 3 4 5 6 7 8 9 10 11 12 13 14 15 16 17 18 19 20 21 22 23 24 25 26 27
558
FTUS41 KRLX 020906 AAA
TAFEKN
TAF AMD
KEKN 020906Z 0209/0306 28007KT P6SM OVC025
     FM021600 27009G16KT P6SM BKN025
     FM030500 29008KT P6SM BKN020=

USA.gov is the U.S. government's official web portal to all federal, state and local government web resources and services.